GALAXY 31 (G-31)

Last updated on Fri Oct 11 2024 00:02:42 GMT+0000 (Coordinated Universal Time)

1 54243U 22153A 24284.02177184 .00000019 00000+0 00000+0 0 9999 2 54243 0.0168 189.6378 0001418 15.8681 60.4819 1.00272628 1007
UTC large
Height (km)
Speed (km/s)
/
Latitude / Longitude
Inclination (degrees)
Orbital Period (minutes)
Azimuth
Elevation
Range (km)
Doppler Factor

Next 0 passes for location: London (51.5072 / 0.1276)

Sorry there are no passes over London.